| time (UTC) | temp F | wind direction | speed knots | gust knots | rain 1hr in | rain 24hr in | rain mn in | humidity % | barometer mb |
| 20260906231504 | 97 | 216 | 1.7 | 4.3 | 0.00 | 0.00 | 0.00 | 42 | 1011.7 |
| 20260906231004 | 97 | 170 | 0.9 | 2.6 | 0.00 | 0.00 | 0.00 | 41 | 1011.6 |
| 20260906230504 | 97 | 103 | 0.9 | 2.6 | 0.00 | 0.00 | 0.00 | 41 | 1011.7 |
| 20260906230009 | 97 | 169 | 0.9 | 9.6 | 0.00 | 0.00 | 0.00 | 40 | 1011.6 |
| 20260906225503 | 97 | 148 | 0.9 | 9.6 | 0.00 | 0.00 | 0.00 | 40 | 1011.6 |
| 20260906225004 | 97 | 227 | 0.9 | 7.0 | 0.00 | 0.00 | 0.00 | 41 | 1011.6 |
| 20260906224507 | 97 | 202 | 1.7 | 4.3 | 0.00 | 0.00 | 0.00 | 41 | 1011.6 |
| 20260906224003 | 97 | 225 | 0.9 | 2.6 | 0.00 | 0.00 | 0.00 | 41 | 1011.7 |
| 20260906223503 | 97 | 163 | 0.9 | 7.0 | 0.00 | 0.00 | 0.00 | 41 | 1011.8 |
| 20260906223012 | 97 | 225 | 1.7 | 7.0 | 0.00 | 0.00 | 0.00 | 40 | 1011.8 |
| 20260906222503 | 98 | 134 | 0.9 | 5.2 | 0.00 | 0.00 | 0.00 | 39 | 1011.8 |
| 20260906222004 | 98 | 192 | 0.9 | 5.2 | 0.00 | 0.00 | 0.00 | 41 | 1011.8 |
| 20260906221507 | 98 | 182 | 0.9 | 4.3 | 0.00 | 0.00 | 0.00 | 40 | 1011.8 |
| 20260906221004 | 98 | 60 | 0.9 | 3.5 | 0.00 | 0.00 | 0.00 | 39 | 1011.8 |
| 20260906220504 | 98 | 177 | 0.9 | 3.5 | 0.00 | 0.00 | 0.00 | 39 | 1011.9 |
| 20260906220024 | 98 | 130 | 1.7 | 4.3 | 0.00 | 0.00 | 0.00 | 39 | 1011.7 |
| 20260906215504 | 98 | 128 | 0.0 | 4.3 | 0.00 | 0.00 | 0.00 | 40 | 1011.7 |
| 20260906215004 | 98 | 5 | 0.9 | 4.3 | 0.00 | 0.00 | 0.00 | 40 | 1011.8 |
| 20260906214517 | 98 | 46 | 1.7 | 4.3 | 0.00 | 0.00 | 0.00 | 40 | 1011.9 |
| 20260906214004 | 98 | 124 | 0.9 | 3.5 | 0.00 | 0.00 | 0.00 | 39 | 1012.0 |
| 20260906213506 | 99 | 29 | 0.9 | 4.3 | 0.00 | 0.00 | 0.00 | 38 | 1012.0 |
| 20260906213012 | 99 | 56 | 0.9 | 4.3 | 0.00 | 0.00 | 0.00 | 38 | 1012.0 |
| 20260906212504 | 99 | 138 | 0.9 | 3.5 | 0.00 | 0.00 | 0.00 | 37 | 1012.1 |
| 20260906212004 | 100 | 190 | 1.7 | 3.5 | 0.00 | 0.00 | 0.00 | 38 | 1012.1 |
| 20260906211511 | 99 | 153 | 0.9 | 7.8 | 0.00 | 0.00 | 0.00 | 38 | 1012.2 |
| 20260906211005 | 99 | 136 | 0.9 | 7.8 | 0.00 | 0.00 | 0.00 | 38 | 1012.3 |
| 20260906210507 | 100 | 49 | 1.7 | 8.7 | 0.00 | 0.00 | 0.00 | 37 | 1012.4 |
| 20260906210013 | 100 | 153 | 1.7 | 8.7 | 0.00 | 0.00 | 0.00 | 38 | 1012.5 |
| 20260906205505 | 100 | 121 | 0.9 | 4.3 | 0.00 | 0.00 | 0.00 | 39 | 1012.5 |
| 20260906205004 | 100 | 84 | 0.9 | 4.3 | 0.00 | 0.00 | 0.00 | 38 | 1012.6 |
| 20260906204511 | 100 | 82 | 0.9 | 4.3 | 0.00 | 0.00 | 0.00 | 37 | 1012.7 |
| 20260906204017 | 100 | 137 | 1.7 | 3.5 | 0.00 | 0.00 | 0.00 | 38 | 1012.8 |
| 20260906203510 | 100 | 138 | 1.7 | 2.6 | 0.00 | 0.00 | 0.00 | 39 | 1012.9 |
| 20260906203028 | 100 | 177 | 0.9 | 2.6 | 0.00 | 0.00 | 0.00 | 39 | 1012.9 |
| 20260906202513 | 100 | 83 | 0.9 | 4.3 | 0.00 | 0.00 | 0.00 | 38 | 1012.9 |
| 20260906202015 | 100 | 229 | 0.9 | 5.2 | 0.00 | 0.00 | 0.00 | 40 | 1013.1 |
| 20260906201528 | 99 | 178 | 1.7 | 5.2 | 0.00 | 0.00 | 0.00 | 40 | 1013.1 |
| 20260906201016 | 99 | 146 | 1.7 | 5.2 | 0.00 | 0.00 | 0.00 | 40 | 1013.1 |
| 20260906200518 | 98 | 151 | 1.7 | 5.2 | 0.00 | 0.00 | 0.00 | 40 | 1013.1 |
| 20260906200031 | 98 | 150 | 0.9 | 4.3 | 0.00 | 0.00 | 0.00 | 41 | 1013.2 |
| 20260906195515 | 98 | 30 | 0.9 | 4.3 | 0.00 | 0.00 | 0.00 | 41 | 1013.3 |
| 20260906195015 | 98 | 179 | 0.9 | 3.5 | 0.00 | 0.00 | 0.00 | 41 | 1013.4 |
| 20260906194540 | 99 | 146 | 0.9 | 4.3 | 0.00 | 0.00 | 0.00 | 41 | 1013.4 |
| 20260906194019 | 99 | 223 | 1.7 | 4.3 | 0.00 | 0.00 | 0.00 | 41 | 1013.4 |
| 20260906193516 | 99 | 160 | 0.9 | 7.0 | 0.00 | 0.00 | 0.00 | 43 | 1013.5 |
| 20260906193034 | 98 | 105 | 1.7 | 7.0 | 0.00 | 0.00 | 0.00 | 42 | 1013.6 |
| 20260906192516 | 98 | 124 | 1.7 | 6.1 | 0.00 | 0.00 | 0.00 | 43 | 1013.4 |
| 20260906192013 | 98 | 198 | 0.9 | 5.2 | 0.00 | 0.00 | 0.00 | 44 | 1013.6 |
| 20260906191529 | 98 | 146 | 0.9 | 5.2 | 0.00 | 0.00 | 0.00 | 44 | 1013.7 |
| 20260906191014 | 97 | 180 | 0.9 | 4.3 | 0.00 | 0.00 | 0.00 | 44 | 1013.8 |
| 20260906190515 | 97 | 136 | 1.7 | 5.2 | 0.00 | 0.00 | 0.00 | 44 | 1013.9 |
| 20260906190032 | 97 | 199 | 1.7 | 9.6 | 0.00 | 0.00 | 0.00 | 44 | 1013.9 |
| 20260906185520 | 97 | 149 | 0.9 | 9.6 | 0.00 | 0.00 | 0.00 | 44 | 1014.0 |
| 20260906185016 | 98 | 204 | 1.7 | 8.7 | 0.00 | 0.00 | 0.00 | 43 | 1014.0 |
| 20260906184543 | 98 | 158 | 2.6 | 8.7 | 0.00 | 0.00 | 0.00 | 44 | 1014.1 |
| 20260906184019 | 98 | 108 | 1.7 | 4.3 | 0.00 | 0.00 | 0.00 | 44 | 1014.2 |
| 20260906183515 | 98 | 273 | 0.9 | 6.1 | 0.00 | 0.00 | 0.00 | 45 | 1014.2 |
| 20260906183036 | 97 | 285 | 0.0 | 6.1 | 0.00 | 0.00 | 0.00 | 45 | 1014.2 |
| 20260906182516 | 97 | 85 | 0.9 | 7.0 | 0.00 | 0.00 | 0.00 | 45 | 1014.2 |
| 20260906182021 | 97 | 74 | 2.6 | 7.0 | 0.00 | 0.00 | 0.00 | 45 | 1014.3 |
| 20260906181553 | 97 | 149 | 1.7 | 5.2 | 0.00 | 0.00 | 0.00 | 45 | 1014.4 |
| 20260906181019 | 97 | 154 | 1.7 | 5.2 | 0.00 | 0.00 | 0.00 | 46 | 1014.6 |
| 20260906180513 | 97 | 314 | 0.9 | 3.5 | 0.00 | 0.00 | 0.00 | 46 | 1014.6 |
| 20260906180029 | 97 | 144 | 0.9 | 3.5 | 0.00 | 0.00 | 0.00 | 45 | 1014.6 |
| 20260906175518 | 97 | 40 | 1.7 | 3.5 | 0.00 | 0.00 | 0.00 | 47 | 1014.7 |
| 20260906175018 | 96 | 57 | 0.9 | 5.2 | 0.00 | 0.00 | 0.00 | 46 | 1014.7 |
| 20260906174536 | 96 | 188 | 1.7 | 4.3 | 0.00 | 0.00 | 0.00 | 47 | 1014.8 |
| 20260906174004 | 96 | 158 | 1.7 | 4.3 | 0.00 | 0.00 | 0.00 | 46 | 1014.9 |
| 20260906173504 | 95 | 36 | 0.9 | 3.5 | 0.00 | 0.00 | 0.00 | 48 | 1015.0 |
| 20260906173018 | 95 | 96 | 0.9 | 4.3 | 0.00 | 0.00 | 0.00 | 48 | 1015.2 |
| 20260906172507 | 94 | 144 | 1.7 | 4.3 | 0.00 | 0.00 | 0.00 | 48 | 1015.3 |
| 20260906172010 | 95 | 155 | 0.9 | 7.0 | 0.00 | 0.00 | 0.00 | 48 | 1015.4 |
| 20260906171529 | 95 | 204 | 2.6 | 7.0 | 0.00 | 0.00 | 0.00 | 50 | 1015.4 |
| 20260906171009 | 95 | 156 | 0.9 | 3.5 | 0.00 | 0.00 | 0.00 | 51 | 1015.4 |
| 20260906170504 | 94 | 78 | 1.7 | 5.2 | 0.00 | 0.00 | 0.00 | 51 | 1015.3 |
| 20260906170009 | 94 | 49 | 1.7 | 5.2 | 0.00 | 0.00 | 0.00 | 51 | 1015.3 |
| 20260906165502 | 94 | 237 | 1.7 | 7.0 | 0.00 | 0.00 | 0.00 | 52 | 1015.4 |
| 20260906165003 | 94 | 53 | 0.9 | 7.0 | 0.00 | 0.00 | 0.00 | 51 | 1015.4 |
| 20260906164508 | 93 | 224 | 1.7 | 3.5 | 0.00 | 0.00 | 0.00 | 52 | 1015.4 |
| 20260906164006 | 93 | 232 | 0.9 | 4.3 | 0.00 | 0.00 | 0.00 | 53 | 1015.4 |
| 20260906163504 | 93 | 84 | 0.9 | 4.3 | 0.00 | 0.00 | 0.00 | 53 | 1015.5 |
| 20260906163020 | 93 | 234 | 0.9 | 7.0 | 0.00 | 0.00 | 0.00 | 54 | 1015.4 |
| 20260906162514 | 92 | 159 | 1.7 | 7.0 | 0.00 | 0.00 | 0.00 | 54 | 1015.4 |
| 20260906162007 | 92 | 44 | 0.0 | 5.2 | 0.00 | 0.00 | 0.00 | 56 | 1015.3 |
| 20260906161518 | 92 | 156 | 0.9 | 4.3 | 0.00 | 0.00 | 0.00 | 57 | 1015.3 |
| 20260906161010 | 91 | 161 | 1.7 | 4.3 | 0.00 | 0.00 | 0.00 | 57 | 1015.2 |
| 20260906160513 | 91 | 187 | 0.9 | 3.5 | 0.00 | 0.00 | 0.00 | 59 | 1015.2 |
| 20260906160028 | 90 | 51 | 1.7 | 4.3 | 0.00 | 0.00 | 0.00 | 58 | 1015.3 |
| 20260906155512 | 90 | 59 | 1.7 | 4.3 | 0.00 | 0.00 | 0.00 | 60 | 1015.4 |
| 20260906155003 | 90 | 163 | 0.0 | 3.5 | 0.00 | 0.00 | 0.00 | 61 | 1015.4 |
| 20260906154504 | 89 | 55 | 0.9 | 3.5 | 0.00 | 0.00 | 0.00 | 62 | 1015.4 |
| 20260906154006 | 89 | 161 | 1.7 | 3.5 | 0.00 | 0.00 | 0.00 | 65 | 1015.4 |
| 20260906153506 | 88 | 52 | 0.0 | 3.5 | 0.00 | 0.00 | 0.00 | 65 | 1015.4 |
| 20260906153010 | 88 | 158 | 0.9 | 3.5 | 0.00 | 0.00 | 0.00 | 66 | 1015.3 |
| 20260906152503 | 88 | 49 | 0.9 | 3.5 | 0.00 | 0.00 | 0.00 | 66 | 1015.2 |
| 20260906152006 | 87 | 62 | 2.6 | 3.5 | 0.00 | 0.00 | 0.00 | 67 | 1015.3 |
| 20260906151517 | 87 | 142 | 0.9 | 2.6 | 0.00 | 0.00 | 0.00 | 68 | 1015.2 |
| 20260906151010 | 87 | 59 | 0.0 | 4.3 | 0.00 | 0.00 | 0.00 | 69 | 1015.2 |
| 20260906150510 | 86 | 42 | 0.9 | 4.3 | 0.00 | 0.00 | 0.00 | 69 | 1015.1 |
| 20260906150029 | 86 | 163 | 0.0 | 1.7 | 0.00 | 0.00 | 0.00 | 70 | 1015.2 |
| 20260906145513 | 85 | 39 | 0.9 | 1.7 | 0.00 | 0.00 | 0.00 | 71 | 1015.1 |
| 20260906145012 | 85 | 156 | 0.0 | 1.7 | 0.00 | 0.00 | 0.00 | 73 | 1015.2 |
| 20260906144528 | 84 | 55 | 0.0 | 1.7 | 0.00 | 0.00 | 0.00 | 73 | 1015.2 |
| 20260906144011 | 84 | 177 | 0.0 | 1.7 | 0.00 | 0.00 | 0.00 | 74 | 1015.2 |
| 20260906143503 | 84 | 122 | 0.0 | 1.7 | 0.00 | 0.00 | 0.00 | 75 | 1015.1 |
| 20260906143007 | 83 | 49 | 0.9 | 1.7 | 0.00 | 0.00 | 0.00 | 76 | 1015.2 |
| 20260906142503 | 83 | 64 | 0.0 | 1.7 | 0.00 | 0.00 | 0.00 | 77 | 1015.3 |
| 20260906142008 | 82 | 225 | 0.9 | 1.7 | 0.00 | 0.00 | 0.00 | 78 | 1015.4 |
| 20260906141515 | 82 | 164 | 0.0 | 1.7 | 0.00 | 0.00 | 0.00 | 78 | 1015.3 |
| 20260906141011 | 82 | 160 | 0.0 | 1.7 | 0.00 | 0.00 | 0.00 | 79 | 1015.2 |
| 20260906140507 | 81 | 80 | 0.0 | 2.6 | 0.00 | 0.00 | 0.00 | 80 | 1015.1 |
| 20260906140022 | 81 | 48 | 0.9 | 2.6 | 0.00 | 0.00 | 0.00 | 80 | 1015.0 |
| 20260906135511 | 81 | 53 | 0.0 | 1.7 | 0.00 | 0.00 | 0.00 | 81 | 1015.0 |
| 20260906135012 | 80 | 36 | 0.0 | 2.6 | 0.00 | 0.00 | 0.00 | 82 | 1015.0 |
| 20260906134527 | 80 | 46 | 0.9 | 1.7 | 0.00 | 0.00 | 0.00 | 82 | 1014.9 |
| 20260906134016 | 80 | 44 | 0.0 | 1.7 | 0.00 | 0.00 | 0.00 | 83 | 1014.9 |
| 20260906133511 | 79 | 44 | 0.0 | 1.7 | 0.00 | 0.00 | 0.00 | 84 | 1015.0 |
| 20260906133036 | 79 | 51 | 0.0 | 1.7 | 0.00 | 0.00 | 0.00 | 84 | 1014.9 |
| 20260906132515 | 79 | 210 | 0.0 | 1.7 | 0.00 | 0.00 | 0.00 | 85 | 1015.0 |
| 20260906132004 | 78 | 210 | 0.0 | 1.7 | 0.00 | 0.00 | 0.00 | 86 | 1014.9 |
| 20260906131512 | 78 | 210 | 0.0 | 0.9 | 0.00 | 0.00 | 0.00 | 86 | 1014.9 |
| 20260906131005 | 78 | 210 | 0.0 | 0.9 | 0.00 | 0.00 | 0.00 | 86 | 1014.8 |
| 20260906130507 | 78 | 210 | 0.0 | 0.9 | 0.00 | 0.00 | 0.00 | 86 | 1014.7 |
| 20260906130018 | 77 | 210 | 0.0 | 0.0 | 0.00 | 0.00 | 0.00 | 86 | 1014.8 |
| 20260906125513 | 77 | 210 | 0.0 | 0.0 | 0.00 | 0.00 | 0.00 | 86 | 1014.7 |
| 20260906125011 | 77 | 210 | 0.0 | 0.0 | 0.00 | 0.00 | 0.00 | 86 | 1014.7 |
| 20260906124526 | 77 | 210 | 0.0 | 0.0 | 0.00 | 0.00 | 0.00 | 86 | 1014.7 |
| 20260906124011 | 77 | 210 | 0.0 | 0.0 | 0.00 | 0.00 | 0.00 | 86 | 1014.7 |
| 20260906123511 | 77 | 210 | 0.0 | 0.0 | 0.00 | 0.00 | 0.00 | 85 | 1014.6 |
| 20260906123033 | 77 | 210 | 0.0 | 0.0 | 0.00 | 0.00 | 0.00 | 85 | 1014.5 |
| 20260906122516 | 77 | 210 | 0.0 | 0.0 | 0.00 | 0.00 | 0.00 | 85 | 1014.5 |
| 20260906122018 | 77 | 210 | 0.0 | 0.0 | 0.00 | 0.00 | 0.00 | 84 | 1014.5 |
| 20260906121532 | 77 | 210 | 0.0 | 0.0 | 0.00 | 0.00 | 0.00 | 84 | 1014.5 |
| 20260906121015 | 77 | 210 | 0.0 | 0.0 | 0.00 | 0.00 | 0.00 | 85 | 1014.4 |
| 20260906120510 | 77 | 210 | 0.0 | 0.0 | 0.00 | 0.00 | 0.00 | 84 | 1014.3 |
| 20260906120015 | 77 | 210 | 0.0 | 0.0 | 0.00 | 0.00 | 0.00 | 84 | 1014.3 |
| 20260906115507 | 77 | 210 | 0.0 | 0.0 | 0.00 | 0.00 | 0.00 | 84 | 1014.3 |
| 20260906115011 | 78 | 210 | 0.0 | 0.0 | 0.00 | 0.00 | 0.00 | 84 | 1014.3 |
| 20260906114534 | 78 | 210 | 0.0 | 0.0 | 0.00 | 0.00 | 0.00 | 84 | 1014.3 |
| 20260906114012 | 78 | 210 | 0.0 | 0.0 | 0.00 | 0.00 | 0.00 | 84 | 1014.3 |
| 20260906113510 | 78 | 210 | 0.0 | 0.0 | 0.00 | 0.00 | 0.00 | 84 | 1014.2 |
| 20260906113027 | 78 | 210 | 0.0 | 0.0 | 0.00 | 0.00 | 0.00 | 84 | 1014.0 |
| 20260906112512 | 78 | 210 | 0.0 | 0.0 | 0.00 | 0.00 | 0.00 | 83 | 1014.0 |
| 20260906112014 | 78 | 210 | 0.0 | 0.0 | 0.00 | 0.00 | 0.00 | 82 | 1014.1 |
| 20260906111531 | 78 | 210 | 0.0 | 0.0 | 0.00 | 0.00 | 0.00 | 83 | 1014.0 |
| 20260906111015 | 78 | 210 | 0.0 | 0.0 | 0.00 | 0.00 | 0.00 | 82 | 1014.1 |
| 20260906110518 | 78 | 210 | 0.0 | 0.0 | 0.00 | 0.00 | 0.00 | 82 | 1014.0 |
| 20260906110034 | 78 | 210 | 0.0 | 0.0 | 0.00 | 0.00 | 0.00 | 82 | 1013.9 |
| 20260906105517 | 78 | 210 | 0.0 | 0.0 | 0.00 | 0.00 | 0.00 | 82 | 1013.9 |
| 20260906105007 | 78 | 210 | 0.0 | 0.0 | 0.00 | 0.00 | 0.00 | 82 | 1013.9 |
| 20260906104535 | 78 | 210 | 0.0 | 0.0 | 0.00 | 0.00 | 0.00 | 81 | 1013.8 |
| 20260906104008 | 78 | 210 | 0.0 | 0.0 | 0.00 | 0.00 | 0.00 | 81 | 1013.8 |
| 20260906103511 | 79 | 210 | 0.0 | 0.0 | 0.00 | 0.00 | 0.00 | 81 | 1013.9 |
| 20260906103026 | 79 | 210 | 0.0 | 0.0 | 0.00 | 0.00 | 0.00 | 81 | 1013.9 |
| 20260906102511 | 79 | 210 | 0.0 | 0.0 | 0.00 | 0.00 | 0.00 | 81 | 1013.9 |
| 20260906102016 | 79 | 210 | 0.0 | 0.0 | 0.00 | 0.00 | 0.00 | 81 | 1013.7 |
| 20260906101529 | 79 | 210 | 0.0 | 0.0 | 0.00 | 0.00 | 0.00 | 80 | 1013.7 |
| 20260906101018 | 79 | 210 | 0.0 | 0.0 | 0.00 | 0.00 | 0.00 | 80 | 1013.7 |
| 20260906100518 | 79 | 210 | 0.0 | 0.0 | 0.00 | 0.00 | 0.00 | 80 | 1013.6 |
| 20260906100032 | 79 | 210 | 0.0 | 0.0 | 0.00 | 0.00 | 0.00 | 80 | 1013.7 |
| 20260906095520 | 80 | 210 | 0.0 | 0.0 | 0.00 | 0.00 | 0.00 | 80 | 1013.7 |
| 20260906095017 | 80 | 210 | 0.0 | 0.0 | 0.00 | 0.00 | 0.00 | 80 | 1013.6 |
| 20260906094531 | 80 | 210 | 0.0 | 0.0 | 0.00 | 0.00 | 0.00 | 80 | 1013.6 |
| 20260906094008 | 80 | 210 | 0.0 | 0.0 | 0.00 | 0.00 | 0.00 | 79 | 1013.5 |
| 20260906093508 | 80 | 210 | 0.0 | 0.0 | 0.00 | 0.00 | 0.00 | 79 | 1013.4 |
| 20260906093023 | 80 | 210 | 0.0 | 0.0 | 0.00 | 0.00 | 0.00 | 79 | 1013.3 |
| 20260906092512 | 80 | 210 | 0.0 | 0.0 | 0.00 | 0.00 | 0.00 | 79 | 1013.3 |
| 20260906092011 | 80 | 210 | 0.0 | 0.0 | 0.00 | 0.00 | 0.00 | 79 | 1013.2 |
| 20260906091534 | 80 | 210 | 0.0 | 0.0 | 0.00 | 0.00 | 0.00 | 79 | 1013.2 |
| 20260906091015 | 80 | 210 | 0.0 | 1.7 | 0.00 | 0.00 | 0.00 | 79 | 1013.1 |
| 20260906090515 | 80 | 211 | 0.0 | 3.5 | 0.00 | 0.00 | 0.00 | 79 | 1013.1 |
| 20260906090033 | 80 | 210 | 0.0 | 3.5 | 0.00 | 0.00 | 0.00 | 79 | 1013.1 |
| 20260906085519 | 80 | 220 | 0.0 | 1.7 | 0.00 | 0.00 | 0.00 | 79 | 1013.1 |
| 20260906085016 | 80 | 220 | 0.0 | 1.7 | 0.00 | 0.00 | 0.00 | 79 | 1013.1 |
| 20260906084536 | 81 | 212 | 0.0 | 1.7 | 0.00 | 0.00 | 0.00 | 78 | 1013.1 |
| 20260906084009 | 81 | 212 | 0.0 | 1.7 | 0.00 | 0.00 | 0.00 | 78 | 1013.1 |
| 20260906083506 | 81 | 208 | 0.0 | 1.7 | 0.00 | 0.00 | 0.00 | 78 | 1013.1 |
| 20260906083025 | 81 | 225 | 0.0 | 1.7 | 0.00 | 0.00 | 0.00 | 78 | 1013.1 |
| 20260906082510 | 81 | 232 | 0.0 | 1.7 | 0.00 | 0.00 | 0.00 | 78 | 1013.1 |
| 20260906082013 | 81 | 202 | 0.0 | 1.7 | 0.00 | 0.00 | 0.00 | 77 | 1013.1 |
| 20260906081538 | 81 | 213 | 0.0 | 1.7 | 0.00 | 0.00 | 0.00 | 77 | 1013.1 |
| 20260906081004 | 81 | 213 | 0.0 | 1.7 | 0.00 | 0.00 | 0.00 | 77 | 1013.1 |
| 20260906080504 | 81 | 213 | 0.0 | 1.7 | 0.00 | 0.00 | 0.00 | 76 | 1013.1 |
| 20260906080006 | 81 | 230 | 0.0 | 1.7 | 0.00 | 0.00 | 0.00 | 76 | 1013.3 |
| 20260906075504 | 82 | 230 | 0.0 | 2.6 | 0.00 | 0.00 | 0.00 | 76 | 1013.3 |
| 20260906075005 | 82 | 234 | 0.0 | 2.6 | 0.00 | 0.00 | 0.00 | 76 | 1013.3 |
| 20260906074510 | 82 | 229 | 0.0 | 1.7 | 0.00 | 0.00 | 0.00 | 76 | 1013.3 |
| 20260906074006 | 82 | 229 | 0.0 | 1.7 | 0.00 | 0.00 | 0.00 | 75 | 1013.3 |
| 20260906073509 | 82 | 229 | 0.0 | 1.7 | 0.00 | 0.00 | 0.00 | 75 | 1013.3 |
| 20260906073019 | 82 | 229 | 0.0 | 1.7 | 0.00 | 0.00 | 0.00 | 74 | 1013.3 |
| 20260906072508 | 82 | 229 | 0.0 | 1.7 | 0.00 | 0.00 | 0.00 | 74 | 1013.3 |
| 20260906072010 | 82 | 229 | 0.0 | 1.7 | 0.00 | 0.00 | 0.00 | 74 | 1013.2 |
| 20260906071531 | 82 | 229 | 0.0 | 2.6 | 0.00 | 0.00 | 0.00 | 74 | 1013.2 |
| 20260906071012 | 82 | 229 | 0.9 | 3.5 | 0.00 | 0.00 | 0.00 | 73 | 1013.3 |
| 20260906070514 | 82 | 212 | 0.0 | 3.5 | 0.00 | 0.00 | 0.00 | 73 | 1013.3 |
| 20260906070030 | 83 | 219 | 0.0 | 3.5 | 0.00 | 0.00 | 0.00 | 73 | 1013.4 |
| 20260906065504 | 83 | 209 | 0.0 | 2.6 | 0.00 | 0.00 | 0.00 | 73 | 1013.4 |
| 20260906065004 | 83 | 209 | 0.0 | 3.5 | 0.00 | 0.00 | 0.00 | 72 | 1013.5 |
| 20260906064520 | 83 | 219 | 0.9 | 3.5 | 0.00 | 0.00 | 0.00 | 72 | 1013.5 |
| 20260906064006 | 83 | 229 | 0.9 | 3.5 | 0.00 | 0.00 | 0.00 | 72 | 1013.5 |
| 20260906063504 | 83 | 220 | 0.0 | 2.6 | 0.00 | 0.00 | 0.00 | 71 | 1013.5 |
| 20260906063014 | 83 | 195 | 0.9 | 2.6 | 0.00 | 0.00 | 0.00 | 71 | 1013.5 |
| 20260906062507 | 83 | 238 | 0.9 | 3.5 | 0.00 | 0.00 | 0.00 | 70 | 1013.5 |
| 20260906062008 | 83 | 209 | 0.9 | 4.3 | 0.00 | 0.00 | 0.00 | 70 | 1013.4 |
| 20260906061526 | 83 | 174 | 0.0 | 4.3 | 0.00 | 0.00 | 0.00 | 70 | 1013.4 |
| 20260906061011 | 83 | 219 | 0.9 | 1.7 | 0.00 | 0.00 | 0.00 | 69 | 1013.5 |
| 20260906060513 | 83 | 171 | 0.0 | 1.7 | 0.00 | 0.00 | 0.00 | 69 | 1013.6 |
| 20260906060034 | 83 | 212 | 0.9 | 1.7 | 0.00 | 0.00 | 0.00 | 68 | 1013.6 |
| 20260906055513 | 84 | 207 | 0.0 | 1.7 | 0.00 | 0.00 | 0.00 | 68 | 1013.6 |
| 20260906055020 | 84 | 229 | 0.0 | 1.7 | 0.00 | 0.00 | 0.00 | 67 | 1013.5 |
| 20260906054530 | 84 | 229 | 0.0 | 1.7 | 0.00 | 0.00 | 0.00 | 67 | 1013.5 |
| 20260906054016 | 84 | 193 | 0.0 | 1.7 | 0.00 | 0.00 | 0.00 | 67 | 1013.5 |
| 20260906053520 | 84 | 206 | 0.0 | 1.7 | 0.00 | 0.00 | 0.00 | 66 | 1013.6 |
| 20260906053037 | 84 | 174 | 0.0 | 1.7 | 0.00 | 0.00 | 0.00 | 66 | 1013.5 |
| 20260906052517 | 84 | 159 | 0.0 | 1.7 | 0.00 | 0.00 | 0.00 | 66 | 1013.5 |
| 20260906052019 | 84 | 232 | 0.0 | 4.3 | 0.00 | 0.00 | 0.00 | 65 | 1013.5 |
| 20260906051534 | 85 | 213 | 1.7 | 4.3 | 0.00 | 0.00 | 0.00 | 65 | 1013.4 |
| 20260906051012 | 85 | 219 | 0.9 | 4.3 | 0.00 | 0.00 | 0.00 | 64 | 1013.4 |
| 20260906050511 | 85 | 244 | 1.7 | 4.3 | 0.00 | 0.00 | 0.00 | 64 | 1013.4 |
| 20260906050026 | 85 | 229 | 0.9 | 4.3 | 0.00 | 0.00 | 0.00 | 64 | 1013.5 |
| 20260906045516 | 85 | 214 | 0.9 | 3.5 | 0.00 | 0.00 | 0.00 | 64 | 1013.5 |
| 20260906045015 | 85 | 206 | 0.9 | 5.2 | 0.00 | 0.00 | 0.00 | 64 | 1013.4 |
| 20260906044532 | 85 | 192 | 1.7 | 5.2 | 0.00 | 0.00 | 0.00 | 64 | 1013.4 |
| 20260906044019 | 85 | 177 | 0.9 | 4.3 | 0.00 | 0.00 | 0.00 | 65 | 1013.4 |
| 20260906043518 | 85 | 217 | 0.0 | 2.6 | 0.00 | 0.00 | 0.00 | 65 | 1013.5 |
| 20260906043038 | 85 | 173 | 0.0 | 2.6 | 0.00 | 0.00 | 0.00 | 65 | 1013.3 |
| 20260906042515 | 85 | 229 | 0.0 | 1.7 | 0.00 | 0.00 | 0.00 | 65 | 1013.4 |
| 20260906042016 | 85 | 199 | 0.0 | 2.6 | 0.00 | 0.00 | 0.00 | 64 | 1013.4 |
| 20260906041536 | 86 | 199 | 0.0 | 2.6 | 0.00 | 0.00 | 0.00 | 64 | 1013.4 |
| 20260906041018 | 86 | 190 | 0.9 | 1.7 | 0.00 | 0.00 | 0.00 | 64 | 1013.4 |
| 20260906040521 | 86 | 171 | 0.9 | 3.5 | 0.00 | 0.00 | 0.00 | 64 | 1013.4 |
| 20260906040037 | 86 | 167 | 0.9 | 3.5 | 0.00 | 0.00 | 0.00 | 64 | 1013.4 |
| 20260906035515 | 86 | 209 | 0.9 | 1.7 | 0.00 | 0.00 | 0.00 | 64 | 1013.5 |
| 20260906035014 | 86 | 209 | 0.9 | 2.6 | 0.00 | 0.00 | 0.00 | 64 | 1013.4 |
| 20260906034532 | 86 | 111 | 0.9 | 2.6 | 0.00 | 0.00 | 0.00 | 64 | 1013.4 |
| 20260906034015 | 86 | 213 | 0.9 | 4.3 | 0.00 | 0.00 | 0.00 | 63 | 1013.5 |
| 20260906033516 | 86 | 194 | 0.9 | 4.3 | 0.00 | 0.00 | 0.00 | 63 | 1013.5 |
| 20260906033035 | 86 | 229 | 0.0 | 2.6 | 0.00 | 0.00 | 0.00 | 63 | 1013.5 |
| 20260906032515 | 86 | 217 | 0.9 | 3.5 | 0.00 | 0.00 | 0.00 | 63 | 1013.5 |
| 20260906032022 | 86 | 159 | 0.9 | 4.3 | 0.00 | 0.00 | 0.00 | 62 | 1013.5 |
| 20260906031603 | 87 | 175 | 0.9 | 4.3 | 0.00 | 0.00 | 0.00 | 62 | 1013.6 |
| 20260906031019 | 87 | 225 | 0.9 | 4.3 | 0.00 | 0.00 | 0.00 | 62 | 1013.6 |
| 20260906030520 | 87 | 233 | 0.9 | 4.3 | 0.00 | 0.00 | 0.00 | 62 | 1013.5 |
| 20260906030037 | 87 | 238 | 0.9 | 2.6 | 0.00 | 0.00 | 0.00 | 62 | 1013.5 |
| 20260906025521 | 87 | 208 | 0.0 | 1.7 | 0.00 | 0.00 | 0.00 | 62 | 1013.6 |
| 20260906025016 | 87 | 143 | 0.9 | 1.7 | 0.00 | 0.00 | 0.00 | 61 | 1013.6 |
| 20260906024543 | 87 | 175 | 0.9 | 2.6 | 0.00 | 0.00 | 0.00 | 61 | 1013.5 |
| 20260906024003 | 87 | 182 | 0.0 | 2.6 | 0.00 | 0.00 | 0.00 | 61 | 1013.5 |
| 20260906023503 | 87 | 200 | 0.9 | 2.6 | 0.00 | 0.00 | 0.00 | 60 | 1013.4 |
| 20260906023007 | 87 | 161 | 0.9 | 4.3 | 0.00 | 0.00 | 0.00 | 60 | 1013.2 |
| 20260906022505 | 87 | 262 | 0.0 | 4.3 | 0.00 | 0.00 | 0.00 | 60 | 1013.2 |
| 20260906022004 | 87 | 165 | 0.0 | 3.5 | 0.00 | 0.00 | 0.00 | 59 | 1013.1 |
| 20260906021515 | 87 | 172 | 0.9 | 7.0 | 0.00 | 0.00 | 0.00 | 59 | 1013.1 |
| 20260906021005 | 87 | 180 | 0.9 | 5.2 | 0.00 | 0.00 | 0.00 | 59 | 1013.1 |
| 20260906020507 | 87 | 257 | 0.9 | 2.6 | 0.00 | 0.00 | 0.00 | 59 | 1012.9 |
| 20260906020016 | 88 | 200 | 0.9 | 3.5 | 0.00 | 0.00 | 0.00 | 58 | 1012.8 |
| 20260906015508 | 88 | 146 | 1.7 | 3.5 | 0.00 | 0.00 | 0.00 | 58 | 1012.8 |
| 20260906015012 | 88 | 178 | 0.9 | 4.3 | 0.00 | 0.00 | 0.00 | 58 | 1012.8 |
| 20260906014526 | 88 | 244 | 1.7 | 4.3 | 0.00 | 0.00 | 0.00 | 57 | 1012.7 |
| 20260906014003 | 88 | 141 | 0.9 | 4.3 | 0.00 | 0.00 | 0.00 | 57 | 1012.8 |
| 20260906013504 | 89 | 148 | 0.9 | 4.3 | 0.00 | 0.00 | 0.00 | 56 | 1012.6 |
| 20260906013007 | 89 | 203 | 0.9 | 4.3 | 0.00 | 0.00 | 0.00 | 56 | 1012.3 |
| 20260906012503 | 89 | 178 | 0.9 | 3.5 | 0.00 | 0.00 | 0.00 | 55 | 1012.2 |
| 20260906012008 | 90 | 181 | 1.7 | 3.5 | 0.00 | 0.00 | 0.00 | 54 | 1012.2 |
| 20260906011509 | 91 | 143 | 0.9 | 4.3 | 0.00 | 0.00 | 0.00 | 53 | 1012.0 |
| 20260906011017 | 91 | 176 | 0.9 | 4.3 | 0.00 | 0.00 | 0.00 | 52 | 1011.9 |
| 20260906010505 | 92 | 117 | 0.9 | 6.1 | 0.00 | 0.00 | 0.00 | 51 | 1011.9 |
| 20260906010014 | 92 | 28 | 2.6 | 6.1 | 0.00 | 0.00 | 0.00 | 50 | 1011.9 |
| 20260906005507 | 93 | 163 | 2.6 | 4.3 | 0.00 | 0.00 | 0.00 | 49 | 1011.7 |
| 20260906005008 | 93 | 165 | 0.9 | 5.2 | 0.00 | 0.00 | 0.00 | 49 | 1011.6 |
| 20260906004521 | 94 | 180 | 1.7 | 7.0 | 0.00 | 0.00 | 0.00 | 48 | 1011.7 |
| 20260906004013 | 94 | 134 | 1.7 | 7.0 | 0.00 | 0.00 | 0.00 | 47 | 1011.6 |
| 20260906003510 | 95 | 128 | 0.9 | 4.3 | 0.00 | 0.00 | 0.00 | 45 | 1011.6 |
| 20260906003030 | 95 | 47 | 0.9 | 2.6 | 0.00 | 0.00 | 0.00 | 44 | 1011.5 |
| 20260906002504 | 95 | 189 | 0.9 | 2.6 | 0.00 | 0.00 | 0.00 | 43 | 1011.5 |
| 20260906002004 | 95 | 199 | 0.0 | 2.6 | 0.00 | 0.00 | 0.00 | 44 | 1011.5 |
| 20260906001507 | 95 | 150 | 0.0 | 2.6 | 0.00 | 0.00 | 0.00 | 43 | 1011.6 |
| 20260906001005 | 95 | 163 | 0.0 | 2.6 | 0.00 | 0.00 | 0.00 | 42 | 1011.6 |
| 20260906000503 | 96 | 185 | 0.9 | 1.7 | 0.00 | 0.00 | 0.00 | 42 | 1011.5 |
| 20260906000014 | 96 | 252 | 0.0 | 2.6 | 0.00 | 0.00 | 0.00 | 41 | 1011.5 |
| 20260905235507 | 96 | 165 | 0.0 | 2.6 | 0.00 | 0.00 | 0.00 | 41 | 1011.6 |
| 20260905235011 | 96 | 112 | 0.0 | 1.7 | 0.00 | 0.00 | 0.00 | 40 | 1011.5 |
| 20260905234521 | 96 | 140 | 0.0 | 1.7 | 0.00 | 0.00 | 0.00 | 40 | 1011.3 |
| 20260905234008 | 96 | 91 | 0.0 | 3.5 | 0.00 | 0.00 | 0.00 | 40 | 1011.3 |
| 20260905233512 | 97 | 154 | 0.9 | 3.5 | 0.00 | 0.00 | 0.00 | 40 | 1011.5 |
| 20260905233027 | 97 | 208 | 0.9 | 2.6 | 0.00 | 0.00 | 0.00 | 39 | 1011.6 |
| 20260905232514 | 97 | 137 | 0.9 | 3.5 | 0.00 | 0.00 | 0.00 | 39 | 1011.4 |
| 20260905232016 | 97 | 216 | 0.9 | 3.5 | 0.00 | 0.00 | 0.00 | 39 | 1011.4 |